This is the latest recevied weather packets stored in our database for station/object N4TLC. If no packets are shown the sender has not sent any weather packets the latest 1 day(s).
| Time | Temp. | Humidity | Pressure | Rain* | Wind** | Luminosity | Snow |
|---|---|---|---|---|---|---|---|
| 1777993262 | 22.22° C | 48% | 1018.6 hPa | 0 mm | 0.89 m/s, 282° | 131 W/m² | - |
| 1777992957 | 21.67° C | 50% | 1018.5 hPa | 0 mm | 0.89 m/s, 180° | 117 W/m² | - |
| 1777992656 | 21.67° C | 50% | 1018.7 hPa | 0 mm | 0.89 m/s, 164° | 100 W/m² | - |
| 1777992353 | 21.11° C | 52% | 1018.6 hPa | 0 mm | 0.89 m/s, 214° | 91 W/m² | - |
| 1777992051 | 21.11° C | 51% | 1018.6 hPa | 0 mm | 1.79 m/s, 285° | 82 W/m² | - |
| 1777991748 | 20.56° C | 51% | 1018.6 hPa | 0 mm | 1.79 m/s, 279° | 81 W/m² | - |
| 1777991445 | 20.56° C | 52% | 1018.7 hPa | 0 mm | 1.34 m/s, 265° | 76 W/m² | - |
| 1777991142 | 20.56° C | 52% | 1018.5 hPa | 0 mm | 1.79 m/s, 301° | 75 W/m² | - |
| 1777990839 | 20.56° C | 54% | 1018.9 hPa | 0 mm | 0 m/s | 75 W/m² | - |
| 1777990537 | 20.56° C | 54% | 1018.7 hPa | 0 mm | 1.34 m/s, 295° | 70 W/m² | - |
| 1777990234 | 20° C | 56% | 1018.5 hPa | 0 mm | 1.34 m/s, 154° | 65 W/m² | - |
| 1777989930 | 19.44° C | 57% | 1018.6 hPa | 0 mm | 0.89 m/s, 126° | 64 W/m² | - |
| 1777989627 | 18.89° C | 57% | 1018.8 hPa | 0 mm | 0.45 m/s, 168° | 61 W/m² | - |
| 1777989323 | 19.44° C | 57% | 1018.7 hPa | 0 mm | 0.45 m/s, 211° | 60 W/m² | - |
| 1777989020 | 18.89° C | 58% | 1018.6 hPa | 0 mm | 0 m/s | 58 W/m² | - |
| 1777988716 | 18.89° C | 59% | 1018.6 hPa | 0 mm | 0.89 m/s, 120° | 57 W/m² | - |
| 1777988413 | 18.33° C | 61% | 1018.5 hPa | 0 mm | 0.89 m/s, 147° | 56 W/m² | - |
| 1777988110 | 18.33° C | 61% | 1018.7 hPa | 0 mm | 0.89 m/s, 162° | 55 W/m² | - |
| 1777987806 | 17.78° C | 62% | 1018.5 hPa | 0 mm | 1.34 m/s, 254° | 55 W/m² | - |
| 1777987503 | 17.78° C | 62% | 1018.6 hPa | 0 mm | 2.68 m/s, 267° | 54 W/m² | - |
| 1777987201 | 17.22° C | 64% | 1018.4 hPa | 0 mm | 0 m/s | 53 W/m² | - |
| 1777986897 | 17.22° C | 64% | 1018.6 hPa | 0 mm | 0.89 m/s, 352° | 52 W/m² | - |
| 1777986595 | 17.22° C | 65% | 1018.7 hPa | 0 mm | 0.89 m/s, 153° | 52 W/m² | - |
| 1777986293 | 17.22° C | 65% | 1018.8 hPa | 0 mm | 0.89 m/s, 352° | 51 W/m² | - |
| 1777985990 | 16.67° C | 66% | 1018.5 hPa | 0 mm | 1.79 m/s, 259° | 50 W/m² | - |
* Rain latest hour (hover to see other rain measurements)
** Current wind speed in m/s (hover to see current wind gust speed)